Vorticity
6 5 6 7 7 7 7 6 7 6 5 9 8 5 30 -1 19 3 10 10 10 9 8 10 10 11 12 11 14 10 9 6 6 6 9 7 7 6 7 6 5 4 6 9 12 15 6
7 4 6 7 6 8 8 6 6 8 8 6 9 10 -2 23 17 4 7 12 9 9 6 8 10 12 12 11 11 11 10 7 8 8 8 7 7 3 5 7 7 7 7 6 11 7 22
7 7 5 4 4 5 5 6 8 7 5 6 6 9 14 23 2 23 -3 16 8 8 6 7 7 10 10 13 12 8 7 8 6 8 8 9 6 6 4 2 2 4 6 4 9 13 13
6 6 8 7 6 7 6 6 7 10 10 7 11 8 5 8 9 -3 17 3 12 6 7 7 6 7 12 11 14 12 10 9 7 7 8 8 8 7 5 4 5 4 3 3 8 6 9
3 7 8 10 7 6 3 3 6 1 10 22 19 15 11 12 20 4 9 3 12 7 6 7 6 5 8 9 13 12 13 12 11 9 9 8 7 6 6 6 6 6 7 4 2 2 3
6 7 6 9 5 4 5 5 10 11 12 32 25 15 12 10 4 7 4 22 -2 14 6 7 5 7 5 6 7 7 9 8 8 9 8 7 7 6 5 7 7 6 7 5 4 5 5
8 7 8 9 4 6 6 11 27 31 35 31 39 19 15 9 7 8 1 -3 14 4 13 6 3 6 5 5 5 7 5 5 6 6 7 7 7 7 6 6 8 7 7 8 8 2 1
7 7 9 5 3 -0 4 34 38 29 26 25 43 30 14 11 13 12 29 5 13 4 7 9 6 5 4 4 5 5 3 3 5 4 5 6 5 3 5 4 5 4 3 2 0 1 5
6 8 6 2 1 6 38 30 30 38 37 31 28 36 20 11 -4 -13 6 2 -1 16 1 7 8 5 5 4 4 3 2 3 3 2 2 1 1 1 2 2 1 2 3 5 5 4 3
7 8 3 0 6 18 46 26 36 42 33 54 37 31 29 25 14 2 25 4 -1 7 11 2 7 10 6 5 5 5 3 2 3 3 1 0 3 1 1 2 3 1 4 4 4 6 2
9 5 0 3 8 43 26 39 39 24 16 0 45 23 25 29 32 1 27 0 15 4 16 5 2 4 9 9 5 7 5 3 4 6 7 7 5 4 3 5 8 10 9 8 8 8 10
9 2 2 4 21 40 18 46 5 7 -25 24 23 55 23 31 34 -1 8 5 1 22 5 20 8 4 4 5 7 6 5 6 4 3 3 4 5 8 12 9 8 6 6 7 9 11 8
6 1 3 9 31 35 21 36 1 25 -29 21 34 63 28 40 -12 -8 15 13 1 13 6 7 19 8 5 6 6 4 5 6 4 7 7 9 12 8 7 8 10 12 17 16 14 12 8
4 1 4 19 30 38 27 33 10 16 12 7 25 27 38 36 -2 14 -11 7 2 17 14 4 9 13 14 8 6 5 6 8 8 11 10 9 12 16 22 35 47 44 39 43 49 35 32
2 0 5 24 37 36 33 18 5 38 1 -2 48 37 41 23 3 -1 8 -1 -12 20 20 7 5 -4 7 8 10 10 9 8 8 9 7 9 14 22 14 -8 -1 15 -6 -5 8 7 1
2 1 6 23 49 35 31 36 33 3 -0 15 54 17 41 40 6 -9 -14 31 10 6 19 11 9 3 7 5 9 4 5 7 10 3 11 16 -2 3 -5 -7 3 0 3 -1 4 4 5
1 2 11 30 51 33 27 36 19 9 -5 43 45 15 24 -49 -13 15 12 -6 1 17 18 12 8 6 3 2 3 10 6 8 4 8 11 -3 8 -1 -1 10 13 31 25 19 16 12 14
0 2 14 41 45 26 25 20 2 23 5 11 42 16 28 -8 -6 5 -5 30 -3 18 23 11 6 6 3 5 5 6 9 2 0 19 -0 0 3 3 22 16 14 16 15 20 21 3 13
1 4 14 53 40 21 28 3 4 16 -2 60 -7 36 36 -25 -1 28 -7 1 16 25 20 11 7 4 -1 12 4 7 2 5 14 11 -2 2 12 16 9 19 10 11 25 25 15 27 10
0 4 14 63 25 27 36 12 9 17 22 25 -7 29 41 -1 0 -3 3 7 7 28 12 11 6 3 6 7 7 3 7 11 19 9 2 9 15 16 19 -5 15 24 26 24 25 26 10
1 5 13 67 14 33 49 11 -5 8 37 38 -5 8 23 10 18 5 -2 4 9 24 11 10 11 10 7 5 5 7 9 18 14 7 8 13 24 18 0 3 16 -1 10 20 23 27 30
3 6 12 65 17 15 12 21 28 40 -2 -2 13 1 6 -9 -7 -4 8 23 18 14 15 14 12 7 4 4 10 17 20 17 9 8 13 16 14 17 5 33 19 30 16 18 7 1 10
5 4 10 59 16 22 38 25 39 -13 -2 14 15 15 2 10 6 19 13 12 19 12 13 9 9 10 8 12 7 15 12 8 15 10 17 12 10 3 20 13 23 43 14 19 10 13 20
9 4 8 55 22 52 18 -6 -12 7 16 16 22 5 16 6 -4 -5 13 9 9 7 5 7 16 7 11 3 15 13 9 9 -3 18 5 8 8 12 18 9 18 32 27 15 26 39 5
12 3 6 54 48 30 5 -2 -6 10 -20 24 6 11 28 10 17 38 -1 12 7 10 8 8 13 9 14 7 13 12 8 6 6 7 1 8 8 5 4 18 13 9 18 18 24 31 9
13 4 4 53 59 6 40 6 4 -4 -3 6 -4 12 19 5 16 13 2 26 16 10 6 5 14 8 25 16 20 13 8 3 4 4 4 4 4 5 2 8 -5 2 12 13 6 16 19
14 2 4 37 69 10 23 32 5 -9 -12 3 0 -4 9 18 21 17 10 5 5 3 3 5 8 4 32 9 8 14 7 8 6 4 0 7 5 10 6 6 3 1 5 6 6 1 8
12 6 5 24 78 25 33 9 13 7 -5 3 12 10 -15 21 6 6 1 16 9 -2 2 6 2 11 24 5 8 20 10 2 4 8 1 2 7 4 10 1 7 7 3 2 5 6 5
9 9 4 10 61 26 27 18 -7 14 -6 -7 13 12 14 5 9 24 -0 -13 22 9 9 -8 7 5 32 1 18 17 14 8 2 11 1 -0 2 1 2 5 7 7 8 10 7 5 4
Height
5691 5687 5685 5681 5677 5673 5669 5667 5665 5663 5660 5659 5657 5657 5657 5659 5660 5662 5664 5669 5674 5674 5678 5682 5685 5689 5693 5699 5703 5707 5710 5713 5719 5724 5726 5730 5734 5738 5738 5741 5742 5744 5748 5751 5754 5757 5761
5686 5682 5677 5673 5670 5667 5663 5659 5656 5652 5650 5649 5649 5649 5648 5648 5651 5653 5656 5660 5665 5667 5671 5675 5678 5682 5685 5690 5696 5701 5704 5707 5711 5716 5719 5723 5726 5730 5732 5734 5736 5738 5741 5744 5747 5750 5751
5678 5673 5668 5663 5660 5656 5653 5649 5644 5642 5639 5637 5636 5636 5637 5638 5641 5643 5648 5652 5656 5659 5664 5668 5672 5675 5678 5683 5688 5694 5697 5699 5703 5708 5712 5716 5719 5722 5726 5727 5729 5731 5734 5736 5739 5742 5743
5669 5663 5659 5653 5647 5642 5637 5633 5630 5625 5623 5621 5620 5622 5623 5626 5629 5634 5638 5642 5646 5650 5655 5661 5666 5669 5672 5676 5681 5686 5691 5694 5697 5700 5705 5708 5712 5715 5717 5720 5722 5724 5726 5730 5732 5732 5734
5661 5654 5648 5641 5634 5626 5619 5613 5608 5604 5601 5599 5600 5603 5606 5611 5616 5621 5626 5631 5636 5641 5647 5654 5660 5663 5667 5671 5675 5679 5684 5688 5691 5694 5698 5701 5704 5707 5710 5712 5714 5716 5718 5720 5722 5723 5725
5652 5643 5635 5626 5619 5612 5602 5591 5578 5569 5568 5570 5573 5578 5585 5594 5601 5607 5613 5619 5625 5632 5640 5647 5652 5657 5662 5666 5669 5673 5677 5681 5685 5688 5691 5695 5698 5701 5703 5704 5707 5707 5709 5711 5713 5716 5715
5641 5632 5623 5613 5602 5591 5580 5569 5556 5542 5534 5534 5543 5550 5561 5574 5584 5592 5599 5608 5618 5626 5633 5639 5644 5650 5654 5659 5664 5667 5671 5675 5679 5683 5685 5688 5692 5695 5695 5697 5698 5699 5701 5702 5703 5703 5705
5633 5623 5613 5603 5591 5577 5560 5542 5524 5514 5510 5509 5515 5525 5537 5552 5567 5580 5584 5597 5607 5617 5621 5627 5635 5642 5648 5653 5658 5661 5666 5670 5674 5677 5680 5683 5685 5686 5688 5690 5690 5691 5691 5694 5693 5693 5692
5623 5613 5600 5587 5573 5556 5535 5515 5501 5492 5488 5490 5496 5503 5515 5531 5548 5562 5571 5586 5596 5605 5612 5620 5626 5633 5640 5646 5652 5656 5660 5663 5667 5671 5673 5676 5678 5679 5679 5679 5680 5681 5680 5680 5680 5680 5681
5611 5599 5586 5570 5552 5533 5514 5497 5484 5478 5476 5478 5481 5487 5498 5512 5531 5549 5563 5576 5586 5594 5602 5612 5619 5625 5634 5640 5645 5649 5654 5658 5662 5665 5666 5669 5670 5669 5669 5670 5667 5668 5669 5667 5665 5664 5667
5601 5586 5571 5553 5533 5515 5499 5485 5475 5471 5472 5475 5471 5474 5483 5498 5522 5541 5556 5570 5577 5585 5593 5604 5611 5620 5626 5633 5641 5643 5647 5651 5654 5657 5660 5661 5659 5659 5660 5659 5656 5658 5656 5654 5651 5649 5649
5590 5574 5556 5537 5519 5501 5488 5477 5471 5468 5468 5467 5464 5464 5474 5489 5513 5535 5549 5561 5566 5576 5584 5595 5604 5613 5621 5626 5633 5637 5641 5644 5647 5648 5651 5651 5651 5651 5651 5648 5644 5643 5641 5637 5634 5633 5630
5579 5563 5543 5523 5505 5490 5479 5470 5466 5466 5461 5461 5458 5458 5469 5487 5511 5524 5539 5549 5556 5567 5581 5591 5599 5608 5614 5620 5626 5630 5634 5638 5640 5641 5643 5643 5644 5641 5639 5634 5630 5627 5623 5619 5616 5612 5615
5570 5553 5532 5512 5495 5481 5470 5464 5463 5462 5461 5459 5455 5457 5466 5484 5501 5519 5533 5542 5551 5564 5575 5586 5595 5601 5608 5614 5620 5624 5628 5630 5632 5632 5632 5633 5634 5630 5626 5622 5619 5614 5610 5607 5599 5597 5597
5563 5545 5523 5504 5487 5474 5462 5459 5459 5457 5457 5456 5453 5457 5466 5483 5499 5512 5526 5538 5548 5561 5573 5582 5590 5597 5603 5609 5615 5618 5621 5623 5625 5626 5627 5625 5624 5621 5617 5614 5612 5607 5601 5596 5589 5588 5582
5557 5537 5516 5494 5478 5466 5458 5455 5456 5455 5456 5454 5453 5460 5469 5481 5498 5514 5528 5537 5548 5559 5568 5576 5584 5593 5599 5604 5608 5611 5614 5617 5617 5618 5618 5618 5616 5616 5612 5609 5604 5597 5593 5587 5581 5577 5572
5552 5532 5510 5488 5473 5462 5455 5454 5455 5455 5456 5454 5459 5467 5475 5485 5500 5514 5528 5537 5547 5555 5563 5572 5581 5589 5595 5598 5602 5606 5610 5610 5611 5612 5613 5612 5610 5611 5607 5602 5595 5588 5583 5577 5571 5568 5562
5547 5527 5506 5484 5470 5461 5455 5454 5454 5458 5459 5460 5463 5473 5481 5491 5505 5516 5527 5537 5546 5551 5558 5568 5577 5584 5589 5593 5598 5601 5602 5602 5606 5607 5607 5606 5602 5601 5599 5592 5586 5579 5574 5568 5561 5561 5552
5545 5525 5504 5484 5472 5462 5457 5458 5458 5461 5462 5463 5470 5478 5488 5500 5508 5517 5529 5538 5544 5548 5555 5564 5572 5579 5585 5590 5594 5596 5597 5598 5601 5601 5602 5600 5597 5592 5591 5587 5578 5568 5563 5556 5551 5548 5545
5546 5526 5504 5486 5475 5465 5460 5463 5462 5465 5467 5472 5479 5486 5497 5504 5514 5522 5531 5537 5543 5547 5553 5561 5569 5575 5581 5586 5589 5592 5592 5595 5596 5597 5597 5594 5591 5586 5584 5578 5569 5561 5554 5548 5543 5539 5540
5542 5526 5506 5489 5480 5471 5466 5466 5468 5469 5474 5481 5487 5491 5500 5509 5518 5526 5533 5538 5542 5547 5554 5561 5568 5573 5578 5583 5585 5587 5589 5590 5592 5592 5591 5589 5587 5582 5579 5573 5565 5559 5554 5547 5542 5539 5537
5543 5529 5511 5494 5485 5478 5475 5473 5471 5476 5481 5488 5493 5498 5503 5511 5520 5528 5533 5536 5540 5547 5554 5560 5565 5571 5577 5580 5582 5584 5585 5587 5587 5588 5587 5585 5584 5580 5576 5569 5561 5555 5551 5548 5544 5541 5538
5544 5531 5516 5499 5491 5484 5480 5481 5485 5488 5493 5495 5498 5503 5509 5516 5524 5530 5535 5539 5544 5548 5554 5559 5564 5569 5574 5576 5580 5581 5582 5584 5586 5586 5584 5584 5582 5578 5573 5566 5561 5556 5552 5551 5549 5546 5543
5544 5532 5519 5504 5496 5493 5492 5492 5492 5496 5499 5503 5507 5509 5515 5522 5528 5532 5536 5540 5545 5549 5554 5559 5563 5567 5570 5574 5577 5578 5580 5582 5583 5583 5582 5582 5581 5577 5573 5566 5563 5559 5553 5551 5550 5547 5546
5544 5532 5519 5505 5500 5498 5499 5500 5500 5502 5503 5507 5511 5516 5520 5525 5529 5532 5537 5541 5545 5549 5554 5558 5562 5566 5568 5572 5574 5576 5578 5581 5582 5582 5581 5581 5580 5577 5573 5569 5569 5566 5561 5557 5553 5551 5551
5543 5532 5518 5505 5498 5498 5500 5503 5504 5506 5509 5511 5514 5519 5523 5527 5530 5534 5538 5542 5546 5550 5554 5558 5561 5564 5567 5569 5572 5573 5575 5578 5580 5581 5582 5582 5581 5579 5576 5574 5571 5571 5568 5565 5565 5562 5561
5542 5531 5518 5505 5495 5497 5498 5503 5507 5509 5511 5515 5517 5520 5525 5528 5531 5536 5539 5542 5546 5550 5554 5557 5560 5562 5564 5566 5569 5570 5573 5576 5578 5580 5580 5581 5581 5580 5579 5576 5575 5574 5574 5573 5573 5575 5572
5541 5530 5518 5506 5497 5495 5496 5502 5506 5510 5513 5516 5519 5522 5526 5528 5532 5535 5539 5542 5546 5548 5552 5556 5559 5560 5561 5564 5566 5567 5570 5573 5575 5577 5579 5580 5581 5580 5581 5579 5579 5578 5578 5579 5578 5578 5578
5538 5528 5518 5505 5496 5492 5493 5496 5502 5507 5511 5515 5519 5522 5526 5529 5532 5535 5539 5542 5545 5548 5552 5554 5556 5557 5558 5561 5563 5564 5567 5570 5573 5575 5578 5580 5581 5581 5581 5582 5582 5581 5580 5580 5580 5580 5580